TITAN 3C TRANSTAGE DEB, 28806

Orbit data source: Space-Track

TITAN 3C TRANSTAGE DEB, 28806 is space debris in HEO originally from a launch on Tue, 21 Dec 1965 UTC launched from the Air Force Eastern Test Range (AFETR). Debris objects in space refer to the collection of defunct objects orbiting the Earth. Examples of debris include non-operational satellites, rocket bodies, and fragments generated from explosions, collisions, or faulty payload assembly.

Loading next visibility...
Identifier
28806, 1965-108BY
Orbit
HEO
Country
Flag of USUS
Related business
Manufacturer
Unknown
Mission
Spacecraft
Bus & Motor
Unknown
Mass
Unknown
Launch date (UTC)
1965-12-21 (60 years ago)
Launch vehicle
Unknown
Launch site
Air Force Eastern Test Range (AFETR)
Object type
Payload
Rocket body
Debris
Shape & HBR
Unknown
Radar Cross Section
Small (<0.1 m²)

Expand to show TLE details & history
Last TLE update: 1 week ago

TLE from 1 week ago
0 TITAN 3C TRANSTAGE DEB
1 28806U 65108BY  26123.82737785  .00000052  00000-0  12169-1 0  9992
2 28806  27.0860 204.3991 6633160 179.6996 181.1723  2.66496202 46357
Epoch: 2026-05-03T19:51Z
TLE epoch observation values (Epoch: 2026-05-03T19:51:25.446Z)
Latitude
-0°
Longitude
44.83092°
Altitude
30,183.745 km
Speed
1.915 km/s
True Right ascension
13h 37m 38s
True Declination
0° 00' 00"
Sunlit
Object was in daylight at epoch
Visualization orbit readout
Latitude
Unknown
Longitude
Unknown
Altitude
Unknown
Speed
Unknown
Apparent Right ascension
Unknown
Apparent Declination
Unknown
Sunlit
N/A
Visualization observer readout
Local Sidereal Time
04:51:30
Azimuth
Unknown
Elevation
Unknown
Doppler factor
Unknown
Orbital elements
Apogee altitude
30,179.769 km
Perigee altitude
1,021.817 km
Semi-major axis
21,978.93 km
Eccentricity
0.66332
Inclination
27.086°
RAAN
204.3991°
Arg. of periapsis
179.6996°
True anomaly
180.3171°
Mean anomaly
181.1723°
Eccentric anomaly
180.7048°
Mean motion
0.66609 °/min
Orbital period
540.47 mins
BSTAR
0.012169
Loading maneuver chart data...
Computing Atmospheric mass density...

Documentation

Showing up to 5 results
|